Location: Saratoga Springs
(43.0831°N, 73.7850°W)
Time: 01:33:37
(UTC-04:00)

Vanguard 3 - Pass Details

Date: 23 April 2024
Orbit: 509 x 3232 km, 33.3° (Epoch: 26 May)

Event Time Altitude Azimuth Distance (km) Brightness Sun altitude
Exits shadow 03:52:24 25° 214° (SSW) 4,307 10.2 -20.8°
Maximum altitude 04:00:46 42° 165° (SSE) 2,928 9.7 -19.7°
Drops below altitude 10° 04:10:24 10° 99° (E) 3,772 11.1 -18.3°
Sets 04:13:06 0° 92° (E) 4,438 11.7 -17.9°
